{"data":{"norad_id":66843,"epoch":"2026-05-25T02:30:45.241920Z","epoch_age_seconds":59218,"freshness":"FRESH","line1":"1 66843U 25280Y   26145.10469030  .00003855  00000+0  33066-3 0  9996","line2":"2 66843  70.0002 141.7234 0003905 267.1995  92.8717 14.98336427 27523","mean_motion":14.98336427,"eccentricity":0.0003905,"inclination_deg":70.0002,"raan_deg":141.7234,"arg_perigee_deg":267.1995,"mean_anomaly_deg":92.8717,"bstar":0.00033066,"rev_number":2752,"period_min":96.106586882039,"perigee_km":569.32197348536,"apogee_km":574.75005861089,"semimajor_km":6950.1730160481,"source":"CELESTRAK","updated_at":"2026-05-25T13:38:21.338454Z"}}